Regional Weather Roundup
Issued by NWS

Home | Current Version | Previous Version | Graphics & Text | Print | Product List | Glossary Off
Versions: 1 2 3 4 5 6 7 8 9 10 11 12 13 14 15 16 17 18 19 20 21 22 23 24 25 26 27 28 29 30 31 32 33 34 35 36 37 38 39 40 41 42 43 44 45 46 47 48 49 50

592
ASUS43 KMKX 192211
RWRWI

WISCONSIN REGIONAL WEATHER ROUNDUP
NATIONAL WEATHER SERVICE MILWAUKEE/SULLIVAN WI
400 PM CST MON FEB 19 2018

NOTE: "FAIR" INDICATES FEW OR NO CLOUDS BELOW 12,000 FEET WITH NO
SIGNIFICANT WEATHER AND/OR OBSTRUCTIONS TO VISIBILITY.

WIZ001-002-006>008-014>016-023>028-192300-
NORTHWEST WISCONSIN

CITY           SKY/WX    TMP DP  RH WIND       PRES   REMARKS
SUPERIOR ARPT  LGT SNOW  19  16  90 NE14G23   30.06S VSB 1   WCI   5
ASHLAND        MIX PCPN  18  14  84 NE24G31   30.05S FOG     WCI   0
HAYWARD        LGT SNOW  18  12  77 NE22      29.93F WCI   1
SIREN          LGT SNOW  19  14  82 NE14G22   29.94S WCI   5
CUMBERLAND     LGT SNOW  19  16  86 NE18      29.87R WCI   4
RICE LAKE      LGT SNOW  21  18  88 N16G24    29.89S WCI   7
CHETEK         LGT SNOW  21  18  86 NE9G17    29.87S WCI  11
LADYSMITH      LGT SNOW  21  17  84 NE16G26   29.90S WCI   7
EAU CLAIRE     CLOUDY    23  21  92 NE13      29.82F FOG     WCI  11
MENOMONIE      CLOUDY    24  20  86 NE15G23   29.84R FOG     WCI  11
NEW RICHMOND   MIX PCPN  22  18  84 NE15      29.86F WCI   9
OSCEOLA        LGT SNOW  21  17  84 NE15G23   29.91F WCI   8
$$

WIZ003>005-009-010-017-018-192300-
NORTH CENTRAL WISCONSIN

CITY           SKY/WX    TMP DP  RH WIND       PRES   REMARKS
MANITOWISH WTR LGT SNOW  17  15  94 NE13G20   29.92S WCI   3
ARBOR VITAE    FLURRIES  21  16  83 NE7G17    29.90F WCI  12
WOODRUFF       FLURRIES  21  16  83 NE7G17    29.90F WCI  12
RHINELANDER    LGT SNOW  20  17  88 NE14G25   29.89S VSB 3/4 WCI   7
EAGLE RIVER    CLOUDY    19  14  81 NE16      29.90S WCI   4
LAND O LAKES   LGT SNOW  18  14  86 NE12G18   29.94S WCI   5
PHILLIPS       LGT SNOW  19  16  89 NE16G25   29.89S WCI   4
TOMAHAWK       LGT SNOW  21  18  87 NE8G20    29.89S WCI  11
MEDFORD        CLOUDY    22  19  88 NE14G20   29.82S WCI   9
MERRILL        MIX PCPN  24  21  90 NE12      29.87F WCI  13
$$

WIZ029-030-035-036-043>047-192300-
CENTRAL WISCONSIN

CITY           SKY/WX    TMP DP  RH WIND       PRES   REMARKS
WAUSAU         CLOUDY    26  21  81 NE10      29.84S WCI  16
MOSINEE        CLOUDY    27  25  93 NE18      29.85S WCI  13
MARSHFIELD     CLOUDY    28  25  88 E17       29.80R WCI  16
STEVENS POINT  MIX PCPN  27  26  98 NE12G18   29.85R WCI  16
WAUPACA        CLOUDY    32  28  84 NE8       29.87R FOG     WCI  25
WAUTOMA        CLOUDY    31  28  89 NE21      29.83R FOG     WCI  18
WISC RAPIDS    CLOUDY    30  26  85 E17G26    29.83R FOG     WCI  18
CAMP DOUGLAS   CLOUDY    36  34  92 E15G21    29.78R WCI  26
$$

WIZ011>013-019>022-031-037>040-048>050-192300-
NORTHEAST WISCONSIN

CITY           SKY/WX    TMP DP  RH WIND       PRES   REMARKS
ANTIGO         CLOUDY    23  20  89 NE14      29.88R WCI  11
SHAWANO        CLOUDY    29  23  79 NE9       29.90S WCI  20
OCONTO         CLOUDY    28  24  86 NE9       29.92F WCI  19
STURGEON BAY   CLOUDY    29  26  89 NE12      29.91S WCI  19
GREEN BAY      CLOUDY    27  23  85 NE30G38   29.89S FOG     WCI  11
MANITOWOC      MIX PCPN  32  31  96 NE13G22   29.88R FOG     WCI  22
APPLETON       CLOUDY    27  21  80 NE20G28   29.85R HAZE    WCI  13
CLINTONVILLE   MIX PCPN  28  23  82 NE15G22   29.89R WCI  16
OSHKOSH        CLOUDY    29  27  92 NE16G24   29.84R WCI  17
$$

WIZ032>034-041-042-053>061-192300-
SOUTHWEST WISCONSIN

CITY           SKY/WX    TMP DP  RH WIND       PRES   REMARKS
LA CROSSE      LGT RAIN  38  33  82 NE10G21   29.75S WCI  31
SPARTA         CLOUDY    35  33  92 E10       29.77S FOG     WCI  27
VIROQUA        CLOUDY    36  36 100 E13       29.72R WCI  28
BOSCOBEL       CLOUDY    39  38  96 NE6       29.74R FOG     WCI  35
PRAIRIE DU CHI CLOUDY    38  37  94 E6        29.71R FOG     WCI  34
PLATTEVILLE    CLOUDY    37  37 100 NE9       29.71R VSB 1/2 WCI  31
$$

WIZ056-057-062-063-064-067-068-192300-
SOUTH CENTRAL WISCONSIN

CITY           SKY/WX    TMP DP  RH WIND       PRES   REMARKS
REEDSBURG      DRIZZLE   36  36 100 E10       29.77R WCI  28
BARABOO/DELLS  LGT RAIN  36  33  88 E9        29.78R WCI  29
LONE ROCK      FOG       38  37  97 E13       29.76R VSB 1/2 WCI  30
MINERAL POINT  LGT RAIN  37  37 100 NE14      29.71S WCI  29
MADISON        LGT RAIN  37  36  96 E7        29.78S FOG     WCI  32
MIDDLETON      CLOUDY    38  38 100 E7        29.76F WCI  33
WATERTOWN      LGT RAIN  37  37 100 NE12G20   29.78S WCI  29
MONROE         SNOW      36  36 100 NE9       29.73R VSB<1/4 WCI  29
JANESVILLE     FOG       39  39 100 E7        29.75R VSB 1/2 WCI  34
$$

WIZ051-052-058>065-066-070>072-192300-
SOUTHEAST WISCONSIN

CITY           SKY/WX    TMP DP  RH WIND       PRES   REMARKS
MILWAUKEE      LGT RAIN  37  36  96 NE10      29.81R VSB 3/4 WCI  30
WAUKESHA       LGT RAIN  34  34 100 NE12      29.81R FOG     WCI  25
MILWAUKEE/TIMM RAIN      36  32  87 N7        29.83R WCI  30
RACINE         LGT RAIN  37  37 100 NE8       29.81S FOG     WCI  31
BURLINGTON     MIX PCPN  38  37  96 E7        29.79S WCI  33
KENOSHA        FOG       39  37  92 E6        29.78S VSB 1/2 WCI  35
FOND DU LAC    CLOUDY    34  31  88 NE14      29.84R FOG     WCI  25
SHEBOYGAN      CLOUDY    33  33 100 NE22G29   29.85R FOG     WCI  21
WEST BEND      RAIN      34  34 100 NE8G14    29.83R WCI  27
JUNEAU         RAIN      35  33  93 NE14G22   29.81R WCI  25
$$

LSZ147-162-192300-
LAKE SUPERIOR

STATION/POSITION TIME  TEMP    WIND        PRES    WAVE
                       AIR SEA DIR/SP/G            HT/PER
                 (UTC) (F)     (DEG/KT/KT) (MB)    (FT/S)
DEVILS ISLAND    2200   19      50/ 28/ 34 1020.2F
SAXON HARBOR     2140   18      50/ 26/ 31 1016.9F
$$

LMZ867-665-643>646-192300-
LAKE MICHIGAN

STATION/POSITION TIME  TEMP    WIND        PRES    WAVE
                       AIR SEA DIR/SP/G            HT/PER
                 (UTC) (F)     (DEG/KT/KT) (MB)    (FT/S)
NORTHPORT PIER   2142   29                 1013.9S
KEWAUNEE LAKESHO 2142   31      30/  4/  5 1011.5R
SHEBOYGAN LAKESH 2200   35      30/ 18/ 21 1011.4R
PORT WASHINGTON  2130   36      40/ 12/ 16 1011.2F
MILWAUKEE LAKESH 2150   36      20/ 13/ 15   N/A
KENOSHA   LAKESH 2200   36      10/  6/  7 1009.1
$$

TC  - TEMPERATURE IN CELSIUS
VSB - VISIBILITY IN STATUTE MILES
WCI - WIND CHILL INDEX
HX  - HEAT INDEX





USA.gov is the U.S. government's official web portal to all federal, state and local government web resources and services.